GW0486 Weather Reports


Display with metric or nautical units.
time (UTC)temp
F
wind
direction
speed
MPH
gust
MPH
rain 1hr
in
rain 24hr
in
rain mn
in
humidity
%
barometer
mb
20260510174504 67 314 1.0 10.0 0.00 0.00 0.01 52 1014.5
20260510173604 69 310 1.0 8.0 0.00 0.00 0.01 56 1014.6
20260510172725 67 321 1.0 8.0 0.00 0.00 0.01 54 1014.9
20260510171804 67 289 2.0 10.0 0.00 0.00 0.01 50 1014.7
20260510170904 68 354 1.0 10.0 0.00 0.00 0.01 51 1014.5
20260510170025 69 331 1.0 5.0 0.00 0.00 0.01 60 1014.6
20260510165404 67 324 1.0 8.0 0.00 0.00 0.01 55 1014.8
20260510164504 67 315 1.0 10.0 0.00 0.00 0.01 49 1015.0
20260510163604 67 326 1.0 5.0 0.00 0.00 0.01 52 1015.0
20260510162704 65 300 2.0 10.0 0.00 0.00 0.01 44 1015.0
20260510161804 65 312 2.0 10.0 0.00 0.00 0.01 45 1014.8
20260510160904 68 309 1.0 8.0 0.00 0.00 0.01 51 1014.9
20260510160025 66 325 1.0 10.0 0.00 0.00 0.01 51 1014.8
20260510155404 66 321 1.0 8.0 0.00 0.00 0.01 50 1014.5
20260510154504 64 307 1.0 10.0 0.00 0.00 0.01 52 1014.6
20260510153604 66 147 1.0 8.0 0.00 0.00 0.01 55 1014.3
20260510152704 68 264 0.0 5.0 0.00 0.00 0.01 54 1014.2
20260510151804 66 306 1.0 13.0 0.00 0.00 0.01 54 1014.3
20260510150904 66 314 0.0 8.0 0.00 0.00 0.01 48 1014.2
20260510150025 66 316 1.0 8.0 0.00 0.00 0.01 52 1014.0
20260510145404 64 298 1.0 8.0 0.00 0.00 0.01 55 1013.8
20260510144525 66 275 0.0 8.0 0.00 0.00 0.01 55 1014.0
20260510143604 64 129 0.0 8.0 0.00 0.00 0.01 59 1013.7
20260510142725 61 124 1.0 5.0 0.00 0.00 0.01 61 1013.5
20260510141804 60 68 0.0 5.0 0.00 0.00 0.01 61 1013.4
20260510140903 59 331 0.0 8.0 0.00 0.00 0.01 64 1013.3
20260510140004 59 329 0.0 8.0 0.00 0.00 0.01 64 1013.4
20260510135403 58 20 0.0 5.0 0.00 0.00 0.01 65 1013.2
20260510134504 58 345 0.0 8.0 0.00 0.00 0.01 61 1013.5
20260510133624 57 22 0.0 5.0 0.00 0.00 0.01 63 1012.9
20260510132704 57 102 0.0 5.0 0.00 0.00 0.01 65 1013.2
20260510131803 56 84 0.0 2.0 0.00 0.00 0.01 65 1012.8
20260510130903 56 300 0.0 2.0 0.00 0.00 0.01 69 1013.0
20260510130003 55 356 0.0 2.0 0.00 0.00 0.01 68 1013.0
20260510125424 55 55 0.0 2.0 0.00 0.00 0.01 67 1012.7
20260510124503 55 298 0.0 5.0 0.00 0.00 0.01 70 1012.7
20260510123603 54 323 0.0 5.0 0.00 0.00 0.01 69 1012.8
20260510122703 54 339 0.0 2.0 0.00 0.00 0.01 69 1012.5
20260510121824 54 126 0.0 2.0 0.00 0.00 0.01 70 1012.3
20260510120903 54 108 0.0 2.0 0.00 0.00 0.01 69 1012.1
20260510120008 53 0 0.0 0.0 0.00 0.00 0.01 73 1012.0
20260510115408 53 0 0.0 0.0 0.00 0.00 0.01 73 1012.2
20260510114508 53 0 0.0 0.0 0.00 0.00 0.01 78 1011.9
20260510113609 53 321 0.0 5.0 0.00 0.00 0.01 76 1011.9
20260510112708 53 0 0.0 0.0 0.00 0.00 0.01 78 1011.6
20260510111808 53 296 0.0 2.0 0.00 0.00 0.01 77 1011.5
20260510110908 53 301 0.0 2.0 0.00 0.00 0.01 78 1011.0
20260510110008 53 306 0.0 5.0 0.00 0.00 0.01 79 1010.9
20260510105408 53 313 0.0 5.0 0.00 0.00 0.01 78 1011.2
20260510104508 53 306 1.0 8.0 0.00 0.00 0.01 80 1010.9
20260510103608 53 314 0.0 5.0 0.00 0.00 0.01 84 1010.5
20260510102708 53 331 0.0 2.0 0.00 0.00 0.01 84 1010.3
20260510101808 53 302 1.0 8.0 0.00 0.00 0.01 83 1010.4
20260510100907 52 303 0.0 2.0 0.00 0.00 0.01 88 1010.2
20260510100029 52 308 0.0 5.0 0.00 0.00 0.01 89 1009.8
20260510095407 53 300 1.0 5.0 0.00 0.00 0.01 87 1009.7
20260510094508 52 294 0.0 5.0 0.00 0.00 0.01 90 1009.6
20260510093607 52 311 1.0 5.0 0.00 0.00 0.01 90 1009.4
20260510092707 52 299 1.0 8.0 0.00 0.10 0.01 91 1009.6
20260510091807 53 306 1.0 5.0 0.00 0.10 0.01 89 1009.1
20260510090928 53 317 0.0 5.0 0.00 0.10 0.01 90 1009.0
20260510090007 55 304 1.0 8.0 0.00 0.00 0.00 87 1008.6
20260510085407 57 302 2.0 10.0 0.00 0.00 0.00 77 1008.7
20260510084507 57 303 2.0 10.0 0.00 0.00 0.00 77 1008.3
20260510083607 58 299 1.0 13.0 0.00 0.00 0.00 76 1008.2
20260510082707 58 299 1.0 8.0 0.00 0.00 0.00 76 1008.1
20260510081807 59 293 1.0 5.0 0.00 0.00 0.00 77 1008.3
20260510080928 59 303 1.0 8.0 0.00 0.00 0.00 77 1008.0
20260510080007 60 302 1.0 5.0 0.00 0.10 0.00 78 1008.1
20260510075407 60 288 0.0 5.0 0.00 0.10 0.00 78 1008.0
20260510074507 60 278 0.0 8.0 0.00 0.10 0.00 78 1007.7
20260510073607 60 294 0.0 5.0 0.00 0.10 0.00 76 1007.7
20260510072707 60 291 0.0 2.0 0.00 0.10 0.00 76 1008.1
20260510071807 60 264 0.0 2.0 0.00 0.10 0.00 75 1007.6
20260510070907 61 310 0.0 5.0 0.00 0.10 0.00 74 1007.6
20260510070007 61 289 0.0 2.0 0.00 0.10 0.00 74 1007.6
20260510065407 61 286 0.0 2.0 0.00 0.10 0.00 74 1007.9
20260510064507 61 259 0.0 5.0 0.00 0.10 0.00 73 1007.9
20260510063607 62 279 0.0 5.0 0.00 0.10 0.00 73 1007.9
20260510062707 62 260 1.0 8.0 0.00 0.10 0.00 71 1007.6
20260510061807 62 238 1.0 5.0 0.00 0.10 0.00 71 1007.6
20260510060907 63 247 1.0 8.0 0.00 0.10 0.00 72 1008.0
20260510060007 63 234 2.0 10.0 0.00 0.10 0.00 73 1007.5
20260510055407 63 240 1.0 10.0 0.00 0.10 0.00 74 1007.6
20260510054507 63 251 1.0 5.0 0.00 0.10 0.00 75 1007.7
20260510053607 62 222 0.0 2.0 0.00 0.10 0.00 77 1007.7
20260510052707 61 0 0.0 0.0 0.00 0.10 0.00 78 1007.5
20260510051807 61 184 0.0 2.0 0.00 0.20 0.00 77 1007.3
20260510050928 61 261 0.0 2.0 0.00 0.20 0.00 77 1007.3
20260510050006 61 0 0.0 0.0 0.00 0.20 0.00 78 1007.2
20260510045407 61 0 0.0 0.0 0.00 0.20 0.00 79 1007.0
20260510044507 60 0 0.0 0.0 0.00 0.20 0.00 79 1007.1
20260510043606 60 0 0.0 0.0 0.00 0.20 0.00 79 1007.2
20260510042706 60 0 0.0 0.0 0.00 0.20 0.00 78 1007.0
20260510041806 61 0 0.0 0.0 0.00 0.20 0.00 77 1006.9
20260510040927 62 268 0.0 5.0 0.00 0.20 0.00 75 1006.9
20260510040007 62 185 0.0 2.0 0.00 0.20 0.00 76 1006.7
20260510035406 61 203 0.0 2.0 0.00 0.20 0.17 76 1006.6
20260510034506 62 249 0.0 2.0 0.00 0.20 0.17 75 1006.3
20260510033606 62 0 0.0 0.0 0.00 0.20 0.17 75 1006.3
20260510032706 62 0 0.0 0.0 0.00 0.20 0.17 74 1006.4
20260510031806 62 306 0.0 2.0 0.00 0.20 0.17 74 1006.4
20260510030906 62 0 0.0 0.0 0.00 0.20 0.17 74 1006.4
20260510030006 63 241 0.0 2.0 0.00 0.20 0.17 74 1006.4
20260510025406 62 0 0.0 0.0 0.00 0.20 0.17 74 1006.4
20260510024527 63 0 0.0 0.0 0.00 0.20 0.17 73 1006.4
20260510023606 63 138 0.0 2.0 0.00 0.20 0.17 73 1006.3
20260510022706 63 148 0.0 2.0 0.00 0.20 0.17 73 1006.2
20260510021806 63 166 0.0 2.0 0.00 0.20 0.17 73 1006.0
20260510020906 64 261 0.0 2.0 0.00 0.20 0.17 72 1006.0
20260510020006 64 0 0.0 0.0 0.00 0.20 0.17 71 1006.0
20260510015406 64 144 0.0 2.0 0.00 0.20 0.17 71 1005.6
20260510014506 65 139 0.0 2.0 0.00 0.20 0.17 70 1005.8
20260510013606 65 169 0.0 2.0 0.00 0.20 0.17 69 1005.2
20260510012706 65 167 0.0 2.0 0.00 0.20 0.17 68 1005.2
20260510011806 66 256 0.0 2.0 0.00 0.20 0.17 66 1005.3
20260510010927 66 209 0.0 2.0 0.00 0.20 0.17 65 1005.3
20260510010006 67 198 0.0 2.0 0.00 0.20 0.17 66 1005.1
20260510005427 67 177 0.0 2.0 0.00 0.20 0.17 64 1004.8
20260510004506 67 194 0.0 5.0 0.00 0.20 0.17 64 1005.0
20260510003606 67 186 0.0 5.0 0.00 0.20 0.17 63 1005.0
20260510002705 68 231 1.0 5.0 0.00 0.20 0.17 62 1004.8
20260510001805 68 179 0.0 8.0 0.00 0.20 0.17 61 1004.5
20260510000926 68 244 1.0 5.0 0.00 0.20 0.17 60 1004.6
20260510000006 69 222 1.0 8.0 0.00 0.20 0.17 58 1004.4
20260509235405 69 187 0.0 2.0 0.00 0.20 0.17 60 1004.4
20260509234505 70 215 1.0 8.0 0.00 0.20 0.17 58 1004.5
20260509233605 69 193 1.0 5.0 0.00 0.20 0.17 59 1004.4
20260509232706 69 232 1.0 13.0 0.00 0.20 0.17 58 1004.4
20260509231806 70 195 1.0 8.0 0.00 0.20 0.17 57 1004.2
20260509230905 70 212 2.0 10.0 0.00 0.20 0.17 58 1004.3
20260509230005 71 237 1.0 15.0 0.00 0.20 0.17 57 1003.9
20260509225405 70 220 1.0 15.0 0.00 0.20 0.17 58 1004.1
20260509224505 71 173 1.0 8.0 0.00 0.20 0.17 61 1004.4
20260509223605 71 209 1.0 10.0 0.00 0.20 0.17 60 1004.2
20260509222705 71 197 2.0 8.0 0.00 0.20 0.17 58 1003.9
20260509221826 71 197 2.0 13.0 0.00 0.20 0.17 58 1003.8
20260509220926 71 149 1.0 10.0 0.00 0.20 0.17 57 1004.1
20260509220005 72 185 2.0 10.0 0.00 0.20 0.17 58 1003.8
20260509215405 72 167 2.0 8.0 0.00 0.20 0.17 58 1003.8
20260509214505 72 183 1.0 8.0 0.00 0.20 0.17 59 1004.1
20260509213605 72 194 2.0 8.0 0.00 0.20 0.17 60 1003.8
20260509212726 73 178 1.0 8.0 0.00 0.20 0.17 59 1004.2
20260509211805 72 159 2.0 10.0 0.00 0.20 0.17 59 1004.3
20260509210926 72 178 2.0 10.0 0.00 0.20 0.17 58 1004.4
20260509210005 73 201 1.0 8.0 0.00 0.20 0.17 55 1004.2
20260509205405 73 182 1.0 8.0 0.00 0.20 0.17 58 1004.4
20260509204505 74 202 2.0 10.0 0.00 0.20 0.17 59 1004.5
20260509203605 74 214 2.0 10.0 0.00 0.20 0.17 58 1004.4
20260509202705 74 232 2.0 13.0 0.00 0.20 0.17 56 1004.4
20260509201805 74 191 1.0 10.0 0.00 0.20 0.17 58 1004.7
20260509200926 73 166 2.0 10.0 0.00 0.20 0.17 58 1004.8
20260509200005 75 186 1.0 5.0 0.00 0.20 0.17 58 1004.6
20260509195405 75 214 2.0 8.0 0.00 0.20 0.17 54 1005.0
20260509194505 76 258 1.0 10.0 0.00 0.20 0.17 58 1004.8
20260509193605 75 199 1.0 8.0 0.00 0.20 0.17 58 1004.9
20260509192704 74 172 1.0 8.0 0.00 0.20 0.17 60 1005.1
20260509191805 72 213 2.0 8.0 0.00 0.20 0.17 62 1005.2
20260509190904 73 184 1.0 5.0 0.00 0.20 0.17 58 1005.3
20260509190005 72 178 1.0 10.0 0.00 0.20 0.17 62 1005.2
20260509185404 72 211 2.0 10.0 0.00 0.20 0.17 63 1005.5
20260509184525 71 231 1.0 10.0 0.00 0.20 0.17 66 1005.4
20260509183604 71 232 1.0 8.0 0.00 0.20 0.17 62 1005.7
20260509182704 71 194 2.0 8.0 0.00 0.20 0.17 62 1005.3
20260509181825 72 210 2.0 10.0 0.00 0.20 0.17 62 1005.5
20260509180925 70 198 2.0 10.0 0.00 0.20 0.17 65 1005.7
20260509180005 71 164 1.0 8.0 0.00 0.20 0.17 66 1005.6
20260509175404 71 208 1.0 8.0 0.00 0.20 0.17 66 1006.0